ARG1036 SUMU-SABE

Flight info

Callsign ARG1036
Flight time N/A
Altitude 22000
Route DAGUS DCT UGIMI UGIMI8R
Aircraft AT46/M-SDFGIRY/S

Departure

Time 2026-04-29 22:47
Airport Carrasco General Cesáreo L. Berisso International Airport (SUMU)

Arrival

Time N/A
Airport Aeroparque Jorge Newbery (SABE)
Time Latitude Longitude Altitude Speed Heading
2026-04-29 22:15 -34.83707 -56.01921 79 ft 0 kts 142°
2026-04-29 22:37 -34.83699 -56.01929 73 ft 4 kts 142°
2026-04-29 22:37 -34.83678 -56.01949 73 ft 4 kts 138°
2026-04-29 22:38 -34.83658 -56.01972 76 ft 4 kts 129°
2026-04-29 22:38 -34.83645 -56.01998 74 ft 4 kts 95°
2026-04-29 22:38 -34.83647 -56.02016 71 ft 1 kts 53°
2026-04-29 22:38 -34.83649 -56.02019 71 ft 0 kts 53°
2026-04-29 22:41 -34.83649 -56.02020 71 ft 1 kts 53°
2026-04-29 22:41 -34.83624 -56.01977 77 ft 11 kts 53°
2026-04-29 22:42 -34.83572 -56.01896 76 ft 12 kts 52°
2026-04-29 22:42 -34.83518 -56.01815 76 ft 12 kts 50°
2026-04-29 22:42 -34.83513 -56.01807 79 ft 0 kts 50°
2026-04-29 22:43 -34.83511 -56.01803 79 ft 3 kts 50°
2026-04-29 22:43 -34.83475 -56.01775 75 ft 8 kts 10°
2026-04-29 22:43 -34.83421 -56.01792 75 ft 8 kts 332°
2026-04-29 22:43 -34.83371 -56.01832 75 ft 12 kts 326°
2026-04-29 22:44 -34.83291 -56.01848 79 ft 15 kts 36°
2026-04-29 22:44 -34.83202 -56.01700 79 ft 22 kts 53°
2026-04-29 22:44 -34.83110 -56.01575 76 ft 18 kts 43°
2026-04-29 22:44 -34.83062 -56.01525 77 ft 0 kts 39°
2026-04-29 22:45 -34.83027 -56.01444 70 ft 17 kts 64°
2026-04-29 22:45 -34.82955 -56.01297 75 ft 21 kts 53°
2026-04-29 22:45 -34.82858 -56.01255 73 ft 12 kts 328°
2026-04-29 22:46 -34.82806 -56.01310 77 ft 13 kts 303°
2026-04-29 22:46 -34.82801 -56.01366 78 ft 0 kts 249°
2026-04-29 22:46 -34.82952 -56.01630 75 ft 77 kts 233°
2026-04-29 22:47 -34.83431 -56.02373 284 ft 131 kts 232°
2026-04-29 22:47 -34.84109 -56.03249 891 ft 152 kts 225°
2026-04-29 22:47 -34.85107 -56.03870 1633 ft 167 kts 205°
2026-04-29 22:47 -34.86212 -56.04274 2363 ft 167 kts 206°
2026-04-29 22:48 -34.87365 -56.04704 2950 ft 180 kts 205°
2026-04-29 22:48 -34.88584 -56.05146 3613 ft 183 kts 205°
2026-04-29 22:48 -34.89808 -56.05596 4313 ft 183 kts 204°
2026-04-29 22:48 -34.91036 -56.06050 4909 ft 189 kts 204°
2026-04-29 22:49 -34.92364 -56.06571 5150 ft 206 kts 204°
2026-04-29 22:49 -34.93651 -56.07073 6004 ft 190 kts 204°
2026-04-29 22:49 -34.94889 -56.07545 6822 ft 180 kts 204°
2026-04-29 22:49 -34.96011 -56.07956 7567 ft 172 kts 204°
2026-04-29 22:50 -34.97175 -56.08368 8334 ft 168 kts 204°
2026-04-29 22:50 -34.98297 -56.08758 9014 ft 167 kts 204°
2026-04-29 22:50 -34.99413 -56.09146 9661 ft 168 kts 204°
2026-04-29 22:50 -35.00550 -56.09541 10253 ft 169 kts 204°
2026-04-29 22:51 -35.01686 -56.09933 10836 ft 170 kts 204°
2026-04-29 22:51 -35.02825 -56.10324 11425 ft 170 kts 204°
2026-04-29 22:51 -35.05128 -56.11097 12584 ft 173 kts 204°
2026-04-29 22:52 -35.06293 -56.11480 13158 ft 174 kts 204°
2026-04-29 22:52 -35.07462 -56.11859 13723 ft 175 kts 204°
2026-04-29 22:52 -35.08539 -56.12436 14153 ft 163 kts 233°
2026-04-29 22:52 -35.09021 -56.13666 14615 ft 161 kts 251°
2026-04-29 22:53 -35.09088 -56.15015 15020 ft 170 kts 284°
2026-04-29 22:53 -35.08526 -56.16325 15436 ft 177 kts 291°
2026-04-29 22:53 -35.07877 -56.17617 15872 ft 180 kts 293°
2026-04-29 22:53 -35.07158 -56.18972 15939 ft 201 kts 294°
2026-04-29 22:54 -35.06330 -56.20446 15959 ft 219 kts 298°
2026-04-29 22:54 -35.05410 -56.21993 15989 ft 231 kts 296°
2026-04-29 22:54 -35.04523 -56.23668 16011 ft 240 kts 294°
2026-04-29 22:54 -35.03988 -56.24870 16030 ft 245 kts 289°